Weather History for Pittsburgh Allegheny Co., PA

Change the Weather History Date:

Sunday, April 6, 2014

  Actual Average Record
Temperature  
Mean Temperature 42 °F -  
Max Temperature 59 °F 58 °F 79 °F (2005)
Min Temperature 28 °F 36 °F 25 °F (1992)
Degree Days  
Heating Degree Days 22    
Moisture  
Dew Point 22 °F    
Average Humidity 48    
Maximum Humidity 93    
Minimum Humidity 23    
Precipitation  
Precipitation 0.00 in - - ()
Sea Level Pressure  
Sea Level Pressure 30.17 in    
Wind  
Wind Speed 3 mph (SE)    
Max Wind Speed 9 mph    
Max Gust Speed -    
Visibility 9 miles    
Events      
Averages and records for this station are not official NWS values.
T = Trace of Precipitation, MM = Missing Value Source: NWS Daily Summary

Daily Weather History Graph

Daily Weather History Graph

Search for Another Location

Airport:

Trip Planner

Search our weather history database for the weather conditions in past years. The results will help you decide how hot, cold, wet, or windy it might be!

Date:

Astronomy

Apr. 06, 2014 Rise Set
Actual Time 6:55 AM EDT 7:49 PM EDT
Civil Twilight 6:27 AM EDT 8:17 PM EDT
Nautical Twilight 5:54 AM EDT 8:50 PM EDT
Astronomical Twilight 5:20 AM EDT 9:24 PM EDT
Moon 11:54 AM EDT (4/6) 1:44 AM EDT (4/6)
Length of Visible Light 13h 49m
Length of Day
12h 53m
Waxing Crescent, 43% of the Moon is Illuminated
Apr 6
Waxing Crescent
Apr 7
First Quarter
Apr 15
Full
Apr 22
Last Quarter
Apr 29
New

Hourly Weather History & Observations

Time (EDT) Temp. Windchill Dew Point Humidity Pressure Visibility Wind Dir Wind Speed Gust Speed Precip Events Conditions
12:53 AM 37.0 °F - 24.1 °F 59% 30.22 in 10.0 mi Calm Calm - N/A   Clear
1:53 AM 37.0 °F - 23.0 °F 57% 30.22 in 10.0 mi Calm Calm - N/A   Clear
2:53 AM 37.0 °F - 24.1 °F 59% 30.22 in 10.0 mi Calm Calm - N/A   Clear
3:53 AM 35.1 °F - 24.1 °F 64% 30.21 in 10.0 mi Calm Calm - N/A   Clear
4:53 AM 35.1 °F - 24.1 °F 64% 30.21 in 10.0 mi Calm Calm - N/A   Clear
5:53 AM 33.1 °F - 24.1 °F 70% 30.22 in 10.0 mi Calm Calm - N/A   Clear
6:53 AM 28.0 °F 21.7 °F 25.0 °F 88% 30.24 in 5.0 mi SSE 5.8 mph - N/A   Clear
7:11 AM 28.4 °F 22.2 °F 26.6 °F 93% 30.20 in 1.8 mi South 5.8 mph - N/A   Clear
7:18 AM 28.4 °F 21.2 °F 26.6 °F 93% 30.20 in 3.0 mi South 6.9 mph - N/A   Clear
7:53 AM 32.0 °F 28.7 °F 27.0 °F 82% 30.25 in 3.0 mi SSE 3.5 mph - N/A   Haze
8:53 AM 36.0 °F 33.3 °F 27.0 °F 70% 30.25 in 8.0 mi SE 3.5 mph - N/A   Clear
9:53 AM 39.9 °F 36.7 °F 25.0 °F 55% 30.24 in 10.0 mi ESE 4.6 mph - N/A   Clear
10:53 AM 45.0 °F 42.6 °F 21.9 °F 40% 30.24 in 10.0 mi Variable 4.6 mph - N/A   Clear
11:53 AM 46.9 °F - 23.0 °F 39% 30.23 in 10.0 mi Calm Calm - N/A   Clear
12:53 PM 48.9 °F - 19.9 °F 32% 30.22 in 10.0 mi Calm Calm - N/A   Clear
1:53 PM 53.1 °F - 19.9 °F 27% 30.18 in 10.0 mi Variable 5.8 mph - N/A   Clear
2:53 PM 53.1 °F - 18.0 °F 25% 30.15 in 10.0 mi Variable 3.5 mph - N/A   Clear
3:53 PM 55.9 °F - 18.0 °F 23% 30.11 in 10.0 mi Variable 4.6 mph - N/A   Clear
4:53 PM 57.9 °F - 19.9 °F 23% 30.06 in 10.0 mi Variable 3.5 mph - N/A   Clear
5:53 PM 57.9 °F - 19.9 °F 23% 30.10 in 10.0 mi Variable 3.5 mph - N/A   Clear
6:53 PM 57.9 °F - 21.9 °F 25% 30.08 in 10.0 mi Variable 4.6 mph - N/A   Clear
7:53 PM 55.9 °F - 21.0 °F 26% 30.06 in 10.0 mi ENE 4.6 mph - N/A   Clear
8:53 PM 54.0 °F - 17.1 °F 23% 30.07 in 10.0 mi East 8.1 mph - N/A   Clear
9:53 PM 53.1 °F - 17.1 °F 24% 30.07 in 10.0 mi ESE 6.9 mph - N/A   Clear
10:53 PM 52.0 °F - 19.0 °F 27% 30.06 in 10.0 mi East 9.2 mph - N/A   Clear
11:53 PM 52.0 °F - 19.0 °F 27% 30.03 in 10.0 mi ESE 8.1 mph - N/A   Clear